Wind_Speed
14 17 17 16 16 16 16 17 15 16 18 20 21 19 18 19 20 20 17 16 16 15 13 13 12 11 11 10 8 8 8 7 6 6 6 7 7 5 6 7 8 9 9 8 7 8 9 10 10 9 8 9 9 8 6 6 7 5 4 6 6 5 4 2 3 6 5 5 6 5 4 4 4 5 4 5 9 10 10 8 6 7 9 9 8
16 16 15 16 16 14 15 17 16 16 17 19 21 19 18 19 19 20 18 16 16 13 12 12 11 11 10 9 8 8 7 7 7 7 7 8 7 6 6 7 7 8 9 8 7 7 8 9 9 9 8 9 9 8 7 6 6 5 4 5 6 7 5 4 4 5 5 6 4 2 3 4 3 4 5 6 9 12 12 9 6 7 8 9 9
13 15 14 15 15 14 14 16 17 16 17 18 18 18 18 17 17 19 20 17 16 13 11 10 10 9 8 7 8 9 8 8 9 8 8 8 8 7 7 7 7 8 8 8 8 8 9 10 10 10 8 8 8 8 8 6 5 5 5 5 5 7 6 4 4 4 6 8 4 1 2 3 2 3 5 7 9 12 13 11 8 10 11 10 9
14 15 13 13 15 17 15 16 17 16 17 18 17 19 20 17 17 19 19 17 16 13 12 11 10 8 8 7 9 11 11 10 10 8 8 8 8 8 8 7 7 8 8 8 9 9 10 10 11 11 9 8 9 8 8 8 7 7 8 7 7 7 6 5 4 4 6 8 3 2 3 2 1 2 4 7 9 11 14 14 11 11 13 11 12
14 15 13 12 14 18 17 17 17 15 16 17 18 19 18 17 18 19 18 17 16 14 14 15 12 9 9 8 9 12 11 9 9 8 7 7 8 8 8 7 7 8 7 8 10 9 8 8 8 9 9 9 9 9 8 9 9 9 9 8 8 7 6 5 3 3 4 6 5 2 3 0 1 4 5 5 8 10 12 13 13 14 13 12 14
11 14 13 10 10 16 18 16 14 15 16 16 17 17 16 15 16 18 19 19 17 16 16 17 14 10 7 7 8 9 8 7 8 8 7 7 8 8 7 7 7 7 7 9 10 8 7 7 6 6 6 6 7 7 8 8 8 8 8 8 7 6 6 6 4 4 4 4 6 4 1 2 4 7 4 2 7 9 11 12 14 15 14 14 17
9 11 10 7 5 10 15 14 10 12 13 15 20 19 17 16 13 16 21 21 19 18 16 18 16 9 6 6 7 7 7 8 8 7 7 8 9 8 7 7 7 7 7 8 8 7 7 7 5 6 6 5 4 4 5 5 6 5 6 7 6 5 5 6 5 4 4 4 6 5 1 4 8 7 3 3 4 7 11 13 15 15 14 15 15
9 11 11 7 7 6 14 15 9 10 14 21 26 22 20 18 14 18 22 21 20 18 16 17 15 10 7 6 6 7 8 9 8 7 7 8 8 7 7 7 7 7 7 6 7 7 7 7 5 5 6 6 5 3 2 3 5 5 4 5 6 5 5 6 6 5 6 7 7 5 3 5 7 6 6 7 5 4 7 9 13 16 14 12 11
6 9 14 12 9 5 13 16 11 14 20 26 29 26 23 21 18 21 21 20 20 18 16 15 14 12 8 6 7 7 9 9 7 6 8 8 7 7 7 8 7 7 6 6 7 7 7 7 6 5 4 6 6 4 4 5 5 5 5 5 6 6 6 7 7 9 10 10 9 8 5 6 5 6 7 8 8 6 4 4 10 14 13 13 13
6 13 14 13 7 2 5 12 15 18 23 28 30 28 24 21 21 22 20 19 18 17 17 16 15 14 9 7 7 10 10 8 7 7 8 7 7 6 7 7 6 6 6 5 6 7 7 8 7 6 6 6 7 7 6 7 6 7 6 5 6 6 6 7 8 9 10 11 11 9 8 8 5 5 6 7 8 6 4 6 11 11 10 12 15
14 19 17 13 14 13 11 17 18 18 22 26 28 28 25 21 23 22 19 18 17 16 17 16 17 16 11 8 9 12 10 9 9 8 7 7 6 6 6 6 6 7 6 5 6 7 6 7 7 7 8 7 7 7 6 7 8 8 8 8 7 7 8 9 9 11 11 12 12 9 9 9 6 6 6 7 6 5 5 6 10 13 11 12 14
14 16 16 12 14 17 17 20 19 18 25 29 28 28 26 25 26 23 19 19 18 17 17 16 17 16 11 9 11 12 10 10 10 9 8 7 7 6 6 6 7 7 7 6 7 7 6 6 7 7 8 8 7 6 7 8 8 8 9 10 9 9 10 10 11 12 12 13 14 11 10 10 8 8 11 10 7 10 12 7 10 15 11 9 13
12 13 13 10 10 12 13 18 26 28 28 33 35 33 30 29 29 27 24 22 20 18 17 16 16 14 10 12 14 13 11 10 10 9 9 8 7 7 7 7 8 8 8 7 7 7 6 6 8 8 8 8 7 7 8 8 8 9 10 11 11 11 12 13 14 13 12 13 13 13 12 12 10 10 13 13 10 14 15 10 12 17 13 11 13
12 11 11 9 11 14 13 15 23 27 24 26 31 33 35 35 33 31 29 28 25 22 19 17 15 12 11 15 16 14 12 10 10 9 9 8 7 7 7 7 8 8 9 8 7 7 6 7 10 10 8 8 8 8 8 9 10 11 11 12 13 13 14 15 14 13 12 12 12 13 13 12 12 12 14 16 14 15 14 9 12 15 15 15 15
11 9 10 11 13 17 14 11 16 19 18 19 21 22 25 30 33 34 34 33 30 26 23 19 15 12 13 15 15 14 13 11 10 9 8 7 7 6 6 7 9 9 9 9 8 8 8 9 10 11 10 10 9 8 9 10 13 12 12 13 13 13 13 14 14 13 12 12 12 13 12 11 12 12 11 14 16 14 11 12 14 10 8 9 10
10 9 9 11 15 17 13 8 9 11 12 15 18 16 15 19 25 30 32 33 31 30 28 22 16 15 16 16 15 14 14 12 11 9 8 7 6 5 5 7 10 10 10 9 9 10 11 11 12 12 11 11 10 10 10 11 13 12 12 12 13 13 13 13 14 14 13 13 13 13 12 12 12 11 11 10 11 10 9 11 11 8 6 6 5
12 10 8 9 13 16 15 12 12 12 13 15 18 20 22 23 24 25 27 28 28 30 29 24 21 20 19 18 16 15 15 13 12 11 9 8 7 5 6 9 11 11 11 11 10 11 12 12 13 12 11 11 11 11 11 11 12 12 11 12 13 14 14 14 14 14 13 12 13 13 12 13 13 12 13 13 13 11 9 8 7 8 7 5 5
13 10 7 8 11 13 14 14 14 17 18 17 17 20 23 22 22 23 25 26 27 28 28 25 24 24 22 20 18 16 15 14 13 13 11 9 8 7 7 9 11 11 11 12 11 11 12 12 12 12 11 11 11 11 11 11 11 12 12 13 13 14 15 14 13 13 13 13 15 16 15 14 14 14 14 13 12 9 8 11 13 14 12 6 9
10 8 7 7 10 11 13 12 11 15 18 16 15 16 16 16 19 20 19 19 20 24 25 24 23 24 23 21 18 17 15 15 15 13 12 10 9 8 8 9 11 11 11 12 11 11 11 11 12 12 11 10 11 11 10 11 11 12 12 13 13 14 15 15 14 14 14 15 16 16 16 15 14 13 12 12 12 11 9 10 12 14 16 13 17
6 6 6 6 9 12 13 13 11 13 17 17 16 15 14 16 20 20 19 18 17 19 23 22 21 22 23 21 18 17 15 15 15 14 12 11 10 9 10 10 11 11 11 11 11 10 10 11 11 11 11 11 10 10 10 10 10 11 11 12 12 13 14 14 14 14 14 15 15 14 14 14 13 13 13 12 13 13 12 11 11 12 15 16 19
9 7 7 8 11 15 15 14 12 12 14 14 13 13 13 14 15 17 20 20 19 19 21 21 19 20 21 20 18 17 16 17 16 14 12 10 10 10 10 10 11 11 11 11 10 10 10 10 10 11 11 11 11 10 10 10 10 10 11 11 12 12 13 14 14 13 13 13 13 13 13 12 12 12 11 11 11 10 10 10 10 10 11 11 14
12 11 10 10 14 18 18 15 14 14 13 12 11 12 12 11 11 12 13 14 15 16 17 18 18 18 20 20 19 18 18 18 16 14 12 11 10 10 10 11 11 11 11 10 10 10 9 9 10 11 11 11 11 11 10 10 10 10 9 9 11 12 12 13 13 13 13 12 12 12 11 10 9 7 7 9 7 5 8 10 10 10 10 9 9
13 11 10 11 14 18 19 18 17 16 14 13 12 13 12 12 12 12 12 13 14 14 14 15 17 17 19 20 19 18 18 18 16 14 12 11 11 11 11 10 10 10 10 9 10 10 9 10 10 10 11 11 11 10 10 11 11 9 8 8 10 11 10 10 10 11 11 10 10 10 9 8 7 5 6 8 5 5 9 11 9 9 9 8 8
13 12 10 11 12 14 15 17 17 15 14 13 12 13 13 12 12 12 13 14 15 15 15 15 15 17 18 19 18 18 18 17 16 15 13 12 12 12 11 11 10 10 10 9 10 10 9 10 10 10 11 10 11 10 10 11 10 9 8 8 8 9 8 8 8 9 9 8 8 8 7 6 6 5 5 6 4 5 9 9 6 4 5 5 5
11 11 10 10 11 10 11 12 13 13 13 12 11 12 12 11 11 11 11 12 14 15 14 13 14 15 16 18 18 17 18 17 15 14 14 14 14 13 12 11 10 10 10 9 10 10 10 10 10 10 11 10 10 10 10 10 10 9 8 8 7 7 7 6 6 7 7 7 7 6 6 6 5 4 4 4 2 2 5 6 5 4 5 5 4
11 10 9 9 8 8 9 10 11 12 12 11 10 10 9 9 10 10 9 9 11 13 13 12 12 13 13 15 14 14 14 14 14 14 14 14 14 12 12 12 11 10 10 9 10 10 10 10 10 10 11 10 10 10 9 10 9 9 8 8 8 7 7 6 6 6 6 6 6 6 6 6 5 5 4 3 3 3 4 4 3 4 7 8 6
12 11 11 11 8 7 9 9 10 12 11 11 10 10 10 9 8 7 7 7 8 10 11 11 10 11 12 12 12 12 13 13 14 13 11 12 13 11 10 10 9 10 10 9 10 10 10 10 10 10 10 11 10 10 10 10 10 10 9 9 9 8 8 8 7 7 7 6 6 6 6 6 6 5 5 4 6 5 4 4 2 3 6 6 6
13 12 13 13 10 7 8 9 11 12 11 11 11 11 10 9 8 7 6 6 7 9 9 10 11 12 12 12 12 12 13 13 13 11 10 11 11 10 10 9 8 9 10 10 9 10 10 10 9 10 10 11 11 11 11 10 10 10 10 10 10 10 9 9 8 8 9 8 7 6 5 5 5 5 5 6 7 7 7 5 2 2 4 4 4
14 14 14 14 11 9 9 10 11 12 11 10 10 10 10 9 9 9 7 5 6 8 8 10 10 10 9 8 9 10 11 11 11 10 10 11 10 11 13 13 10 8 9 11 10 9 11 11 10 10 11 11 12 12 11 12 11 11 11 11 10 10 10 10 10 10 9 9 8 6 6 6 6 7 7 7 8 7 7 6 5 4 4 4 4
15 15 15 15 14 14 14 12 11 12 13 11 10 10 9 9 9 10 9 7 6 6 5 6 6 7 7 7 7 8 8 9 10 9 9 10 10 11 14 15 12 8 7 10 11 10 11 12 11 10 11 11 12 12 12 12 13 12 13 13 12 11 11 11 11 11 11 10 8 7 7 8 8 9 9 9 10 10 9 6 5 6 6 6 6
16 16 15 15 15 16 18 19 18 17 15 12 11 10 9 9 10 11 10 9 8 9 8 8 6 5 6 6 6 6 6 7 8 8 9 9 9 9 10 11 11 10 8 10 13 13 13 15 14 12 11 12 11 11 12 14 15 15 14 15 14 13 13 12 12 12 13 10 5 5 8 7 8 10 12 12 13 13 13 10 6 7 8 9 8
15 15 16 15 15 16 19 20 22 22 21 20 18 15 13 13 10 10 10 10 10 9 8 8 6 4 5 5 4 5 4 4 6 7 8 8 7 7 7 8 10 11 11 12 14 14 12 14 16 15 14 14 13 13 14 13 15 16 16 15 15 14 13 13 13 12 7 3 5 9 12 12 13 15 15 16 17 15 15 14 11 10 10 11 10
15 15 15 15 15 17 19 20 21 22 21 22 22 19 18 18 14 10 9 9 10 10 10 9 8 6 5 4 4 4 4 3 3 4 5 5 6 7 7 8 9 12 13 13 15 15 13 12 14 15 15 15 15 18 18 14 14 17 17 16 16 15 15 15 14 11 6 4 7 12 14 16 19 20 19 19 20 19 18 17 16 16 15 14 13
15 14 13 14 15 16 17 19 20 21 21 22 23 22 22 22 20 17 14 10 11 12 13 13 12 11 9 7 6 6 4 3 2 3 5 5 6 6 7 9 10 14 16 16 16 17 16 16 15 15 15 14 14 18 21 22 21 20 20 20 19 17 15 14 14 15 12 9 10 12 13 16 20 21 21 20 20 20 20 19 18 17 17 16 15
12 11 11 13 15 15 16 17 17 18 19 20 22 22 22 21 21 22 21 17 15 15 16 18 17 16 15 13 11 9 7 5 2 1 2 4 6 9 11 12 13 15 16 17 19 19 19 19 19 18 16 14 14 16 20 24 26 24 23 23 24 22 18 13 13 15 14 13 14 14 14 16 19 20 20 19 19 18 18 17 17 16 16 16 16
9 9 10 12 13 13 13 14 15 16 18 18 19 19 19 19 19 20 21 19 18 18 19 20 19 18 17 16 14 12 10 9 8 5 4 3 4 7 9 10 10 11 12 14 17 18 18 19 19 20 19 17 16 17 19 22 25 25 24 23 25 25 21 15 13 13 13 15 17 17 15 15 17 18 18 17 17 16 14 14 15 15 13 14 15
7 5 6 9 11 11 10 11 13 15 16 16 16 16 16 16 17 17 18 17 16 15 16 16 17 17 16 16 15 15 13 12 11 10 9 7 5 4 5 8 10 11 11 13 15 16 16 17 17 18 19 18 18 18 19 21 22 23 23 23 24 23 20 17 15 13 11 11 13 14 14 14 15 17 17 15 15 15 13 11 12 13 13 12 12
5 4 5 5 7 8 7 8 10 11 12 13 13 12 11 11 12 13 15 15 13 12 11 12 12 13 13 13 14 14 13 13 12 13 13 12 10 9 8 8 9 11 13 14 15 15 16 17 17 18 19 20 18 16 18 21 23 23 23 24 23 21 19 16 13 11 11 12 13 13 12 13 17 19 16 13 14 15 13 10 12 14 13 11 11
6 5 4 5 4 4 6 6 7 8 9 10 10 10 10 9 9 10 10 11 12 11 10 11 12 12 13 13 14 14 12 11 11 12 13 13 12 12 13 12 11 10 12 14 15 16 17 17 17 17 17 17 15 13 15 20 24 25 25 25 22 19 17 15 13 12 13 13 14 15 11 10 15 18 17 16 16 16 14 12 13 15 13 11 11
7 4 4 5 5 4 6 6 7 8 8 9 9 9 10 10 9 9 9 10 11 11 11 12 13 13 13 14 14 14 12 11 11 12 13 13 14 14 15 16 15 14 13 13 14 16 17 16 15 14 14 15 15 15 17 20 22 23 24 24 23 20 17 15 14 14 14 12 12 14 12 10 13 16 18 18 17 17 15 12 14 17 15 14 13
7 5 5 6 5 5 6 6 7 7 7 8 9 8 9 9 9 9 10 11 12 12 12 12 13 13 14 14 14 14 14 13 13 14 14 15 15 16 17 17 18 17 17 16 15 14 14 15 15 14 16 17 17 18 20 21 21 21 23 24 24 21 16 15 17 17 15 14 13 14 15 13 13 14 15 16 17 18 16 12 14 16 14 13 13
6 6 6 6 4 5 6 6 7 8 8 9 9 8 8 9 9 8 9 11 12 12 13 13 13 14 14 15 15 15 16 16 16 16 17 18 18 18 18 18 18 19 19 20 18 15 14 15 15 15 17 18 17 18 21 21 18 19 21 23 24 21 14 14 19 19 14 15 15 15 16 15 13 13 14 16 18 18 15 11 12 13 12 12 11
5 6 7 7 5 5 6 6 6 7 8 8 8 8 8 8 8 8 8 9 10 11 11 12 13 14 15 15 16 16 17 17 17 17 19 20 20 19 19 20 20 21 21 21 21 19 16 16 16 16 17 16 16 18 21 19 16 17 20 21 23 23 16 12 16 17 14 15 17 17 17 17 14 15 16 17 18 16 12 11 12 11 12 11 9
5 6 7 7 5 5 6 6 6 6 6 5 5 5 6 7 8 8 9 10 10 10 11 12 12 13 14 14 15 16 17 18 19 19 20 21 21 21 21 21 21 22 21 21 21 19 18 17 16 16 17 17 17 19 20 20 18 20 22 22 22 25 21 13 12 15 16 16 18 18 18 18 16 16 17 18 17 14 10 10 9 7 7 6 5
4 5 5 5 4 4 4 4 5 4 4 4 5 5 7 8 8 8 10 11 11 12 13 13 13 13 14 15 16 16 17 17 18 20 21 21 21 21 21 21 21 21 21 21 21 20 19 18 17 16 17 18 18 20 23 23 21 22 24 23 22 25 23 15 12 16 20 20 20 19 19 18 17 17 17 17 15 12 10 8 6 5 4 3 3
3 4 3 3 2 2 2 2 3 4 4 5 6 7 8 10 9 10 11 12 12 14 14 15 15 15 15 16 17 17 17 17 17 19 20 21 22 22 21 22 21 21 21 21 21 22 21 19 17 16 16 17 17 20 24 26 26 24 25 25 23 23 22 16 14 20 23 22 20 19 20 19 17 16 15 15 13 11 8 6 5 4 5 4 3
3 3 2 1 1 1 1 3 5 6 6 7 7 8 9 11 12 12 13 14 14 15 15 16 16 17 17 17 18 18 19 19 18 18 19 20 21 21 22 22 21 21 22 22 23 22 22 21 19 17 17 19 19 17 18 24 28 27 26 26 24 22 20 17 18 22 23 21 20 20 20 19 17 15 14 12 11 9 7 6 6 5 5 5 4
2 2 1 2 1 3 4 5 6 7 7 8 8 9 11 12 13 14 14 15 15 15 15 15 16 16 17 17 17 18 19 19 19 19 20 19 19 20 21 22 21 19 17 16 16 17 17 19 22 20 17 16 17 15 16 22 27 28 27 26 24 22 20 20 21 23 22 21 22 22 20 18 17 15 13 12 11 9 8 8 7 7 5 4 4
2 1 3 2 3 5 5 6 6 7 8 9 10 11 12 13 13 13 13 14 14 14 14 14 14 15 15 15 16 16 17 18 18 20 21 22 21 21 22 23 24 23 21 19 18 19 21 19 16 16 13 11 11 14 15 19 25 29 30 29 27 25 24 24 24 24 24 24 23 22 21 19 16 14 13 12 10 10 9 8 8 8 5 3 3
2 3 4 1 5 5 5 6 7 8 9 10 12 12 12 12 12 12 12 12 13 13 13 13 13 13 14 14 15 16 16 18 19 19 21 23 24 25 25 25 26 26 27 27 27 25 23 20 15 11 12 12 13 14 14 15 20 25 26 27 27 26 25 26 26 24 21 22 23 23 21 19 16 14 14 12 10 10 10 9 8 8 5 4 5
5 5 2 5 5 5 6 7 8 9 10 12 13 13 12 11 11 11 11 12 12 13 13 13 13 13 14 15 16 16 16 17 17 18 20 22 23 25 25 25 25 25 25 28 28 25 22 20 15 12 12 13 13 14 15 18 22 21 19 21 24 23 23 26 27 24 22 23 24 22 20 18 16 15 14 13 12 12 11 10 9 7 5 4 4
Wind_Direction
176 168 156 162 168 163 163 166 165 162 163 164 160 155 156 160 156 148 146 143 144 146 142 141 138 137 138 136 138 139 131 127 124 116 118 122 122 134 145 145 147 149 155 161 170 175 158 152 156 158 182 189 183 187 179 174 171 162 189 188 170 172 170 158 139 122 106 88 88 102 130 136 109 96 97 111 117 119 121 128 143 143 145 156 163
168 150 147 170 168 159 162 161 163 166 170 171 161 151 155 163 154 146 150 143 136 138 139 141 139 138 142 140 143 142 137 139 134 122 116 118 118 122 127 130 141 143 143 148 157 170 161 151 153 163 188 201 192 185 183 182 168 160 190 191 174 172 168 172 166 139 118 112 106 95 93 85 84 100 93 86 100 102 100 110 130 142 150 153 148
163 140 150 177 167 158 160 159 165 172 178 172 153 146 153 162 156 146 147 142 131 129 130 132 136 140 137 135 143 135 129 133 129 126 121 120 120 116 116 118 123 131 136 140 144 165 170 156 160 173 184 201 204 191 187 188 170 174 190 183 176 168 156 156 168 171 141 122 113 93 90 84 75 95 84 77 94 98 98 113 141 145 139 141 139
156 139 156 177 169 164 162 159 166 175 180 166 147 147 153 158 156 144 138 134 130 128 123 123 129 132 121 119 130 124 115 115 116 123 124 121 119 113 112 114 115 122 127 128 135 153 165 165 173 181 179 189 205 200 194 191 182 195 195 178 174 165 153 145 149 185 157 132 117 56 76 95 149 151 97 79 91 96 100 113 132 136 129 136 135
151 144 162 180 172 168 166 163 170 174 170 158 148 149 150 148 142 136 135 134 134 134 126 124 119 114 114 110 115 117 113 116 122 126 127 125 123 118 117 119 121 125 126 118 119 132 149 160 168 172 178 186 198 204 203 197 194 203 196 179 178 168 153 139 143 211 182 155 172 140 91 72 188 157 136 85 78 84 94 107 119 126 129 133 126
153 142 163 181 164 164 166 162 164 164 161 151 142 142 139 135 132 131 137 139 139 139 137 135 122 109 117 113 112 121 128 140 138 136 138 131 126 124 121 122 122 125 128 120 117 125 140 155 167 167 178 188 192 204 211 206 201 205 198 184 186 180 157 134 148 217 214 184 213 226 199 198 156 150 158 85 71 78 93 106 114 124 132 129 121
140 129 156 167 169 173 156 149 150 147 144 120 116 128 125 119 126 134 139 142 141 142 146 142 128 120 135 129 133 148 152 150 142 139 135 123 121 122 120 124 124 121 122 125 128 134 138 148 170 169 170 180 181 197 209 199 188 195 201 191 198 206 174 154 164 202 217 205 219 231 166 134 141 141 145 132 99 82 93 103 111 122 131 131 127
148 145 143 143 221 208 114 119 146 135 118 105 109 123 123 121 138 144 143 144 143 144 148 141 130 136 159 159 176 180 153 139 135 131 122 120 128 129 128 130 131 128 126 129 133 135 135 133 143 156 163 169 169 161 146 154 161 168 185 186 190 201 183 173 173 178 205 211 206 202 139 125 137 123 119 133 130 105 98 100 112 123 130 132 132
170 133 131 151 206 206 100 105 125 126 121 119 121 130 134 138 148 148 144 143 146 149 150 145 138 144 168 197 196 164 138 138 139 131 127 135 142 144 145 138 134 134 131 133 133 133 136 128 127 135 135 141 145 134 112 111 122 138 156 169 170 175 171 173 166 162 182 189 191 198 160 128 124 104 106 115 114 120 129 123 117 115 116 118 121
93 81 118 148 143 139 109 92 95 108 122 131 130 131 139 144 144 144 144 145 152 159 158 154 145 145 170 212 185 145 142 153 147 140 142 147 152 153 149 142 139 137 131 135 136 136 136 127 124 113 95 104 118 118 114 108 104 112 120 131 143 143 143 153 147 139 147 152 168 183 153 135 129 107 107 107 105 112 126 142 134 121 117 126 131
83 83 103 120 106 106 110 95 88 95 118 135 135 133 141 144 141 142 146 153 164 169 166 160 150 151 174 198 168 149 159 165 150 151 156 155 160 161 158 156 150 139 132 129 126 129 127 120 123 118 102 101 112 118 122 113 104 104 103 102 112 118 125 133 127 119 118 124 139 148 139 144 145 136 143 128 113 119 124 138 137 131 138 150 149
96 102 110 125 120 115 120 126 133 134 136 143 143 143 146 147 147 147 153 165 172 174 172 165 157 160 177 182 163 160 171 168 158 162 165 164 170 173 173 162 144 137 137 130 121 124 125 120 124 126 117 109 112 120 125 119 108 104 102 95 96 106 116 119 116 115 113 113 121 125 127 138 145 153 156 144 129 132 137 156 152 139 137 144 145
107 116 126 140 128 119 135 149 155 161 160 154 152 154 153 152 154 155 163 175 179 181 180 171 163 168 180 175 166 170 176 171 170 173 169 172 178 181 183 165 149 146 140 131 127 129 130 122 116 119 117 110 110 109 112 122 118 106 102 94 92 97 100 101 104 108 109 110 118 124 126 132 136 141 148 147 141 146 160 171 146 138 138 143 145
102 112 124 125 116 127 151 162 158 164 170 160 156 159 159 161 164 163 168 176 180 184 183 174 171 179 185 174 169 173 176 176 178 176 173 176 181 187 190 170 153 146 136 131 134 133 123 110 106 111 116 115 116 110 106 122 125 113 104 99 96 96 95 95 98 101 103 104 110 116 122 132 136 133 141 149 150 166 186 168 122 134 151 157 156
99 107 108 107 114 129 150 169 159 156 158 156 157 159 161 167 170 170 171 173 176 179 177 175 178 186 183 174 173 174 174 178 178 178 177 173 178 189 186 161 145 138 134 132 132 131 123 115 113 115 117 115 113 106 96 103 112 109 105 105 103 101 104 104 102 101 99 98 103 108 109 117 130 128 131 149 160 171 172 140 135 159 167 156 148
99 95 90 96 108 116 121 130 134 137 144 147 151 158 164 169 172 174 174 173 176 176 173 173 177 182 179 174 178 177 173 177 177 176 178 168 172 182 163 146 141 137 134 133 133 132 127 124 121 118 116 114 113 110 101 100 106 110 110 110 109 109 110 108 106 104 99 99 106 110 99 91 103 105 95 112 137 141 124 127 153 171 144 130 116
97 96 93 88 95 101 105 112 126 139 147 149 154 166 173 173 175 179 177 177 179 178 174 171 171 175 176 175 179 178 176 179 176 173 173 168 168 167 149 143 142 139 136 136 135 131 129 127 123 120 117 116 117 116 113 112 114 117 117 114 113 114 112 110 111 107 103 105 109 111 103 90 91 92 86 86 93 100 90 76 88 91 92 126 130
99 103 99 91 100 108 110 117 134 143 147 150 155 166 173 175 180 179 176 178 179 176 173 170 170 172 175 177 179 179 178 177 174 171 169 167 165 161 154 146 143 142 140 139 135 130 128 126 123 122 118 117 118 117 118 121 122 121 119 116 116 116 115 114 114 110 105 105 106 106 104 101 97 92 89 88 85 90 75 56 65 65 52 79 130
106 115 106 96 111 115 108 116 135 135 130 131 140 154 164 172 179 176 172 174 173 172 170 168 170 173 175 178 176 176 176 172 170 169 165 167 167 164 161 153 148 147 145 142 138 133 130 127 125 124 121 120 119 119 120 122 122 121 119 119 121 122 120 117 115 112 108 108 109 109 109 107 104 98 94 91 86 89 84 67 67 62 52 75 114
103 113 116 123 133 130 126 135 142 126 121 126 136 149 158 165 169 165 166 173 175 174 172 168 171 173 174 175 173 172 171 167 167 166 164 168 167 165 164 159 155 152 149 147 143 138 135 130 128 126 125 124 122 122 123 123 122 122 121 125 126 124 123 121 120 118 114 113 112 110 111 109 105 102 98 91 84 85 89 84 79 73 68 82 104
127 131 139 148 146 141 143 146 140 123 119 124 135 150 157 157 157 154 159 168 174 176 174 169 170 171 171 171 169 168 166 165 166 164 164 168 165 165 165 161 160 157 154 153 151 147 142 136 132 130 128 128 127 126 125 124 125 125 125 128 128 124 122 122 123 121 115 114 111 104 104 107 109 109 106 105 100 95 100 97 90 87 78 82 103
129 134 141 145 144 143 144 144 140 134 128 127 135 145 145 142 144 145 149 157 163 168 168 165 166 168 169 168 166 165 164 164 165 165 164 165 166 167 165 164 164 161 159 160 157 153 149 143 136 133 132 131 130 128 128 126 124 125 126 125 124 123 122 121 120 118 116 115 114 109 106 109 114 105 96 112 117 107 114 108 95 94 83 68 93
129 138 142 142 142 140 140 138 137 137 135 138 142 140 137 137 140 144 150 157 160 165 168 164 163 166 168 168 167 165 163 163 164 166 166 165 169 169 166 166 165 162 166 167 161 158 156 150 143 138 138 136 134 131 129 129 127 127 124 117 119 121 121 122 120 120 122 119 117 115 113 118 120 89 73 97 88 48 87 99 90 94 95 77 81
129 137 138 139 136 130 130 130 129 131 134 139 139 133 132 137 141 147 154 159 162 168 171 165 162 165 168 169 168 165 168 168 165 165 168 167 170 171 169 170 169 167 171 169 165 167 165 159 152 147 145 143 141 137 134 135 135 133 128 119 121 124 122 125 128 130 130 126 125 123 120 122 121 100 80 90 82 50 76 96 97 104 113 107 107
120 122 123 124 122 117 115 115 115 118 121 123 121 121 125 131 138 145 150 152 155 157 158 159 161 162 164 168 169 168 171 172 167 171 176 173 171 172 173 174 172 171 175 172 170 175 175 169 164 159 157 154 152 148 145 146 143 142 144 138 136 140 139 141 142 140 139 140 140 137 137 139 132 127 109 98 119 86 78 98 113 123 146 153 139
102 104 103 97 93 98 103 103 103 103 103 104 105 106 111 119 126 132 138 141 145 146 143 147 157 161 167 173 175 175 176 172 169 178 183 174 170 173 176 177 176 174 177 176 175 182 185 178 176 174 169 166 165 162 159 160 158 158 160 157 159 163 161 163 165 157 156 160 160 157 159 157 150 152 149 137 149 135 98 108 104 101 129 144 144
93 95 97 93 85 82 84 85 90 94 95 94 94 93 90 93 103 115 125 128 133 138 134 135 150 163 171 178 181 186 190 180 172 178 181 168 164 173 178 179 182 180 180 183 185 189 193 188 187 187 181 176 177 176 175 176 173 174 177 177 179 182 179 183 187 181 180 181 177 179 181 178 172 171 174 168 164 167 163 156 137 116 134 147 148
80 77 80 87 94 96 88 82 81 83 83 82 85 91 96 98 98 99 105 112 120 129 136 148 163 167 167 172 177 182 186 182 173 175 182 175 167 173 181 183 190 192 187 192 195 194 197 200 198 196 192 186 185 186 188 189 187 188 191 191 192 195 194 197 199 196 198 196 191 190 184 184 194 196 199 193 181 188 194 185 196 193 174 180 168
77 72 65 66 73 83 92 98 97 94 92 89 85 84 87 93 94 91 91 99 120 137 152 160 158 149 144 152 161 163 165 169 169 169 181 185 177 174 181 185 189 193 191 197 205 202 201 209 211 206 201 195 192 195 198 199 200 201 201 202 206 207 206 208 208 206 208 201 192 194 186 184 199 205 207 206 199 204 205 201 229 233 200 207 216
75 70 62 58 57 56 60 70 86 100 105 109 111 107 98 94 94 90 85 78 82 93 99 104 109 113 117 121 133 147 156 163 165 166 179 191 189 182 186 189 189 191 191 199 212 213 204 211 221 217 207 202 199 201 206 208 207 209 211 209 210 213 215 218 216 210 210 202 186 184 193 201 213 213 210 210 205 201 200 198 210 211 205 221 231
78 68 57 51 49 44 43 44 45 51 57 62 79 95 96 94 99 94 81 73 72 71 69 71 73 81 90 94 114 142 161 166 166 175 186 195 198 190 189 195 200 205 205 204 214 219 213 211 218 224 220 214 208 208 214 217 214 215 215 211 214 221 223 224 228 225 219 214 205 198 199 210 236 234 223 218 212 201 198 199 199 199 207 219 223
72 65 53 45 43 38 35 37 36 35 34 35 40 47 49 52 69 82 77 74 79 85 96 104 106 97 83 81 101 126 146 156 165 176 179 182 186 180 183 199 208 213 220 222 220 222 224 219 217 222 227 223 217 215 219 223 221 220 218 214 216 222 224 227 235 239 238 254 270 245 229 231 246 246 234 224 220 215 212 215 218 217 220 222 219
57 55 48 40 37 34 31 32 33 30 29 29 27 27 30 29 33 54 71 80 79 76 80 89 96 98 97 103 111 115 126 137 157 174 172 178 184 179 188 206 213 213 222 232 229 224 228 228 222 225 230 228 221 217 220 228 231 228 227 222 218 219 224 228 234 241 249 248 244 242 237 233 233 236 235 230 227 227 228 230 227 223 226 228 223
54 51 47 40 35 33 31 31 30 27 26 26 22 20 22 23 22 25 33 56 72 63 52 48 48 49 49 53 63 64 75 108 147 176 181 196 204 203 212 221 221 218 220 227 227 223 224 227 229 232 236 237 230 223 226 234 239 239 238 235 231 228 228 233 240 246 250 249 245 243 239 233 231 232 233 231 228 228 231 236 232 227 232 234 229
54 48 43 38 32 29 28 29 27 25 26 25 22 21 21 20 20 18 20 36 55 50 38 32 29 30 28 27 31 33 29 24 20 96 183 203 201 203 214 215 209 208 213 219 221 222 224 227 229 232 237 242 236 226 229 234 237 240 242 241 241 238 235 243 254 254 255 257 254 248 243 238 233 230 229 228 228 229 231 235 232 227 232 236 232
59 51 45 39 33 29 27 27 27 28 28 26 24 23 21 17 17 16 17 30 40 34 26 23 19 16 17 14 13 14 10 2 359 353 324 283 227 208 212 214 211 209 212 218 222 225 229 231 231 232 233 238 236 229 229 229 231 236 239 238 240 241 241 248 258 261 261 258 252 245 241 236 229 226 227 224 223 225 227 229 227 219 221 229 230
76 80 75 60 47 40 36 33 32 30 27 25 25 26 22 17 15 13 12 21 32 27 19 16 10 4 4 4 0 359 358 357 351 340 334 337 330 289 245 228 228 226 222 222 224 228 231 233 236 236 235 237 240 240 236 232 230 234 236 236 238 242 245 247 252 256 249 236 231 228 227 226 221 221 221 212 210 214 216 221 217 205 204 216 221
87 102 112 95 65 55 59 52 42 33 22 18 22 23 20 16 15 13 8 10 21 24 14 5 357 351 352 352 347 344 346 349 342 335 339 347 339 320 302 271 245 233 230 231 229 228 230 232 235 239 241 242 244 246 243 238 234 233 237 239 239 242 246 242 241 237 218 206 205 205 211 221 220 216 207 193 195 201 199 202 199 189 192 206 212
99 93 103 110 98 82 84 70 49 38 23 16 19 17 13 15 14 11 6 4 9 10 359 347 342 342 342 339 332 327 328 332 329 327 331 330 321 314 309 300 285 260 244 239 235 233 235 236 236 240 245 245 243 240 238 238 238 236 237 238 236 237 238 230 224 216 202 197 198 194 196 210 210 203 193 186 191 195 192 194 191 183 186 206 217
98 82 67 77 83 73 67 56 42 36 26 19 20 15 9 10 6 358 359 1 358 353 345 339 336 335 330 324 319 315 315 317 315 311 311 311 309 307 304 303 302 293 275 260 249 237 233 234 231 231 239 242 243 244 240 238 238 235 233 233 231 228 226 218 214 211 197 186 191 194 191 182 178 181 184 188 195 198 196 192 187 187 198 213 215
90 82 50 45 57 57 48 40 32 30 26 23 22 16 10 10 4 357 359 358 351 344 339 333 328 324 319 314 312 311 312 311 306 301 297 294 292 292 292 292 293 291 286 281 269 249 238 238 231 227 235 241 243 247 244 240 240 236 232 230 224 222 224 217 210 207 193 183 188 193 187 181 177 179 186 191 193 196 197 192 184 188 196 199 193
91 87 58 35 39 53 44 33 27 25 22 19 16 16 16 11 1 354 352 346 338 334 331 327 324 322 319 316 314 311 308 303 296 291 289 286 282 280 279 279 281 281 281 281 278 269 259 254 244 237 243 245 240 237 236 237 241 238 232 229 221 215 218 215 209 205 187 176 185 190 185 184 184 183 187 189 187 188 190 184 173 170 166 161 162
61 62 46 22 22 40 34 27 29 24 18 14 12 14 13 1 348 342 338 331 326 325 324 323 323 321 318 317 315 312 309 303 297 291 285 282 279 276 273 271 271 272 273 271 271 268 259 250 241 233 236 239 233 229 227 228 232 226 220 219 213 205 205 210 210 205 188 176 184 186 179 176 176 176 179 181 179 179 178 167 160 156 154 152 147
45 43 30 14 17 31 27 26 27 20 16 15 11 5 354 343 340 337 332 327 324 323 321 320 319 317 315 314 312 309 307 305 303 301 295 287 281 275 271 269 265 265 266 265 265 263 252 238 228 221 223 226 225 226 227 226 225 220 212 209 207 205 211 221 211 202 198 193 189 182 173 171 172 171 174 175 175 176 174 169 165 163 166 165 155
56 49 27 7 9 27 34 36 24 9 3 2 355 345 334 330 334 333 328 326 325 324 322 320 317 316 316 314 311 308 305 303 303 304 303 299 292 283 275 272 267 264 264 262 261 260 254 241 230 222 220 220 217 222 229 230 227 220 213 208 207 210 217 220 201 194 200 198 187 177 171 170 169 169 172 174 176 179 182 181 180 178 171 158 137
72 63 24 357 27 59 57 37 9 348 344 347 344 335 325 325 330 329 324 324 324 321 321 319 317 316 316 314 313 312 310 308 305 303 300 298 297 294 285 278 272 268 266 265 260 257 255 252 246 236 227 221 214 215 224 227 221 214 210 207 205 208 215 212 188 181 186 183 175 171 169 167 165 167 171 173 173 175 176 173 173 165 147 133 132
63 57 19 318 92 70 353 352 352 345 344 345 339 331 328 331 335 331 325 322 320 317 316 315 314 314 313 312 311 311 311 311 307 302 297 291 290 292 290 284 279 274 270 268 266 262 257 252 250 245 234 225 218 214 221 222 214 206 205 204 199 198 202 194 172 165 166 165 164 165 165 164 164 166 168 168 167 164 160 155 147 135 128 136 168
48 55 266 255 311 13 356 352 351 346 346 345 338 334 334 333 331 329 325 322 320 317 314 310 307 307 308 307 308 309 310 309 306 303 302 299 293 291 289 286 285 286 285 284 287 291 287 270 255 247 237 227 222 216 219 221 214 204 198 196 191 188 187 181 171 164 160 159 161 161 158 158 162 162 159 158 158 152 145 136 129 131 144 167 185
35 257 259 287 23 22 357 348 349 348 347 344 337 334 333 331 330 330 328 324 321 318 312 307 303 303 303 303 305 306 306 305 304 303 303 302 301 301 299 293 289 290 297 304 308 311 314 308 282 252 233 225 224 218 214 217 216 210 202 194 188 185 183 180 177 173 164 158 157 158 157 157 158 157 154 153 151 145 138 132 136 146 166 198 195
345 273 265 13 41 16 350 349 352 349 344 340 338 335 335 335 334 332 329 323 319 315 310 305 302 300 303 308 308 305 303 303 302 301 301 301 303 305 306 304 298 293 294 299 300 296 296 303 303 274 248 241 238 231 220 211 209 209 204 192 183 183 183 178 174 174 169 163 161 160 159 159 158 158 158 156 154 152 149 152 161 161 153 154 154
318 289 314 48 37 358 349 350 347 346 343 340 340 338 335 334 332 331 329 323 318 314 309 305 301 300 306 313 310 304 303 302 300 300 300 300 302 305 306 306 306 302 298 298 299 294 285 283 288 282 264 249 239 232 221 205 198 200 196 181 174 177 178 172 169 170 169 166 164 161 158 160 162 163 164 166 166 162 158 159 171 178 176 160 151
Height
743 749 752 753 753 753 756 759 761 763 766 768 771 775 777 779 782 784 788 791 794 796 797 798 799 801 802 804 806 807 808 809 810 811 812 813 814 815 815 815 816 816 815 815 814 814 815 817 817 817 817 818 819 819 820 821 822 823 824 824 825 826 827 828 830 831 831 833 836 839 841 841 841 842 841 842 842 843 844 844 845 848 849 848 847
738 745 749 750 751 753 756 758 760 762 764 767 770 776 780 781 782 784 788 791 793 796 797 799 800 801 803 804 806 807 808 809 810 811 812 813 815 815 816 816 817 817 817 816 815 815 816 817 817 817 818 818 819 819 820 821 822 823 823 824 825 826 827 828 830 832 832 833 834 837 839 840 842 842 842 842 842 843 845 845 846 847 848 847 847
738 743 747 748 749 753 756 757 759 761 763 767 771 776 781 783 784 784 787 790 792 794 796 798 800 801 803 804 805 806 807 808 809 811 812 814 815 816 816 817 817 818 818 818 817 817 817 817 817 818 818 818 819 819 820 821 822 823 823 824 825 826 827 829 830 831 832 833 835 837 838 841 843 843 843 842 841 843 845 846 848 848 847 846 846
737 743 745 747 751 753 754 756 758 761 764 767 771 775 780 784 785 784 786 788 790 793 795 797 800 801 802 803 804 805 807 808 810 811 812 813 814 815 816 817 818 818 819 819 818 818 819 818 818 818 819 819 819 819 820 821 822 823 823 824 825 826 827 829 831 831 832 833 835 837 839 842 845 844 843 843 842 843 845 847 850 850 848 847 846
734 743 746 746 750 751 753 756 759 762 765 767 771 775 779 784 785 784 786 788 789 792 794 795 798 800 801 802 804 805 807 809 810 811 812 813 814 815 817 817 818 819 819 819 819 819 819 819 818 818 819 820 820 820 821 821 822 823 824 825 825 826 827 829 831 831 832 833 834 836 840 843 843 842 843 844 843 842 845 848 851 851 849 848 848
733 741 746 746 748 751 754 758 762 764 766 768 772 777 782 785 787 786 786 788 789 791 793 795 796 798 801 803 805 806 808 810 810 812 812 813 814 815 817 818 819 820 819 819 820 820 820 819 818 818 819 820 820 821 821 822 822 823 824 824 825 826 828 830 831 831 832 833 833 835 839 840 839 840 841 843 843 843 845 847 849 851 851 849 849
734 741 745 747 751 753 757 763 765 766 768 771 776 780 784 788 789 787 786 788 789 790 793 794 794 797 801 804 806 807 808 810 811 812 813 813 814 816 817 818 819 820 820 820 820 820 820 819 819 819 819 819 820 821 821 822 822 823 823 824 825 827 828 830 831 831 831 831 833 835 837 837 837 838 839 841 843 845 847 848 849 850 851 851 850
734 741 747 753 759 759 762 767 767 768 770 774 778 780 783 787 789 788 787 789 789 791 793 793 794 798 802 805 807 808 809 810 811 812 812 814 815 816 817 818 819 819 820 820 821 820 820 820 819 819 819 820 820 821 821 822 822 823 824 824 826 827 828 830 831 831 831 831 834 836 837 837 837 837 837 838 841 846 850 851 851 851 852 852 851
733 741 748 757 762 761 764 768 768 768 771 773 775 777 780 784 788 788 789 790 791 792 793 794 796 799 803 806 808 809 810 811 811 812 813 814 816 817 818 818 819 819 820 821 821 821 821 820 820 819 819 820 820 820 822 822 823 824 824 825 826 827 828 830 831 832 833 834 836 837 836 836 836 836 836 837 839 845 850 851 851 852 852 853 853
738 745 751 759 761 760 766 771 770 770 772 775 775 776 780 783 786 788 790 791 793 794 795 797 798 800 803 807 808 809 810 811 812 813 814 816 817 818 818 819 819 820 820 821 821 821 821 820 820 819 819 819 820 820 822 823 823 824 825 826 827 827 828 830 831 832 833 835 835 835 834 835 836 835 837 838 840 844 848 849 850 851 852 853 854
744 751 755 762 762 761 768 774 774 776 778 779 779 779 781 783 785 789 790 792 794 795 797 798 798 800 803 806 808 809 811 812 813 814 815 816 818 818 819 820 820 820 821 821 822 822 821 821 820 820 820 820 820 821 822 823 824 825 826 827 827 828 829 830 830 831 833 833 833 833 832 834 834 835 836 838 840 843 846 848 849 850 851 852 853
748 755 757 762 762 761 767 771 772 776 778 777 779 781 782 783 785 788 791 792 794 795 797 798 798 800 803 806 808 810 811 812 813 814 815 817 818 819 820 820 820 821 822 822 822 822 822 821 821 820 820 820 821 822 822 823 824 825 826 827 828 828 829 830 830 832 832 832 833 832 832 833 834 835 836 838 840 842 845 847 847 849 851 852 852
749 753 755 758 758 761 766 767 767 770 771 770 773 777 779 781 783 786 789 791 793 794 796 797 798 800 803 805 807 810 812 813 813 814 815 816 818 819 819 820 821 821 821 822 822 823 823 822 821 820 821 821 822 822 823 823 824 825 826 827 828 829 829 830 831 832 832 832 832 833 833 834 834 835 837 839 840 842 843 844 845 847 849 851 852
747 748 750 753 755 760 764 766 765 767 770 769 769 770 771 773 776 780 784 787 790 793 795 797 798 801 804 805 807 809 811 813 814 814 815 816 817 819 819 820 820 821 821 822 822 822 822 822 821 821 822 822 822 823 823 824 824 825 826 827 828 829 830 830 831 831 832 832 832 833 834 835 836 836 837 839 839 840 841 842 843 846 847 848 849
747 746 748 750 753 760 765 765 765 766 769 770 770 771 771 771 772 775 778 782 786 789 793 796 799 802 804 806 807 809 810 812 814 815 815 816 817 818 819 819 820 820 820 821 822 822 822 822 822 823 823 823 824 824 824 824 825 826 827 827 828 829 830 830 831 832 832 833 833 834 835 836 837 838 839 839 839 840 841 841 842 844 846 847 847
749 750 750 751 755 764 770 772 771 771 771 771 771 774 775 776 776 777 778 780 783 786 789 793 798 801 803 806 808 809 810 811 813 815 815 816 817 818 819 819 819 820 820 821 822 822 823 823 823 823 824 824 825 825 826 826 826 827 828 828 829 830 831 831 832 833 834 834 835 835 836 836 837 838 839 839 839 840 840 841 841 842 844 846 847
752 752 753 755 760 768 774 776 777 776 776 775 774 775 777 778 779 780 780 781 783 785 788 791 794 799 802 805 807 808 810 811 812 814 815 816 817 818 819 819 819 819 820 821 822 823 823 823 823 823 824 825 826 826 827 827 828 829 829 829 830 831 832 833 834 835 835 836 836 837 837 837 837 838 838 838 838 839 840 841 841 841 842 843 846
756 757 758 760 764 770 773 775 777 777 777 778 777 778 779 779 780 780 781 782 784 785 788 790 792 796 800 803 806 808 809 811 812 813 814 815 816 817 818 819 819 819 820 821 822 822 823 823 823 823 824 825 826 827 828 828 829 830 830 830 831 832 833 834 835 835 836 837 837 838 838 839 839 839 839 839 840 841 841 841 841 841 841 841 844
762 763 763 764 767 771 772 777 781 779 778 780 782 782 783 782 782 782 784 786 788 788 789 791 793 796 799 802 805 807 809 810 812 813 814 815 816 817 818 818 819 819 820 821 821 822 822 822 822 823 823 825 826 827 828 829 829 830 831 831 832 832 833 834 835 836 837 838 838 839 840 840 841 841 841 841 842 842 842 842 842 842 842 842 843
766 766 765 767 770 773 775 780 782 780 779 780 782 784 784 783 782 783 785 788 791 792 791 792 794 796 799 801 804 806 808 810 811 813 814 815 815 816 817 818 818 819 819 820 821 822 822 822 822 822 823 824 825 826 828 828 829 830 831 831 832 832 833 834 835 836 837 838 839 839 840 840 841 842 842 842 842 843 843 843 843 844 844 845 846
767 769 770 772 774 775 778 780 780 780 780 781 783 785 785 785 784 784 785 788 790 791 791 792 794 796 798 801 803 805 807 809 811 812 813 814 815 816 817 817 818 818 819 820 821 821 822 822 821 822 822 824 825 826 827 828 829 830 831 832 832 832 833 833 835 836 837 838 839 839 840 841 841 842 843 843 843 843 844 844 844 845 845 846 847
765 769 772 773 774 775 778 779 779 780 781 782 784 785 786 786 786 787 787 788 790 791 791 792 794 796 798 800 802 804 806 808 809 811 812 813 815 815 816 817 817 818 818 819 820 821 821 821 821 822 822 823 824 825 827 827 829 830 831 832 832 832 833 834 834 835 836 837 838 839 840 841 841 842 842 843 843 843 843 844 845 845 846 846 847
765 769 769 771 772 773 775 777 779 780 781 783 784 784 785 786 786 787 788 789 790 792 794 794 795 796 798 800 802 803 805 807 808 810 811 813 814 815 816 816 817 817 818 819 820 820 821 821 821 822 823 823 824 825 826 827 828 829 830 831 832 833 833 834 834 835 836 837 838 839 840 841 841 842 842 842 843 844 844 844 845 846 846 847 847
765 767 768 769 770 771 773 775 777 779 780 782 782 783 785 786 786 788 789 789 791 793 795 795 795 796 798 799 801 802 804 806 807 809 810 812 813 814 815 816 816 817 818 819 819 820 821 821 821 822 823 824 824 825 825 826 827 828 830 831 832 833 834 834 835 836 837 838 838 839 840 841 842 842 843 843 844 844 845 845 846 847 847 848 848
766 767 767 769 770 771 773 774 776 778 779 781 782 784 785 786 787 788 790 790 790 792 793 794 795 796 797 798 799 801 803 805 807 808 809 811 811 813 814 815 816 817 817 818 819 820 821 821 821 822 823 824 824 825 825 826 827 828 829 830 832 833 834 835 836 836 837 838 839 840 841 842 843 843 844 845 845 845 846 846 847 848 848 849 849
768 769 771 772 773 775 775 776 777 778 779 781 782 784 785 786 787 788 790 790 790 791 792 793 794 795 796 798 799 801 803 804 806 807 809 810 811 812 814 815 816 816 817 818 819 820 821 821 822 822 823 824 824 825 826 826 827 828 829 830 831 833 834 835 836 837 837 838 839 840 841 842 843 844 844 845 846 846 847 847 847 848 848 849 849
768 770 772 775 778 779 778 778 779 780 781 782 784 785 787 788 788 789 790 790 790 791 791 793 796 797 798 799 800 802 804 805 805 807 808 809 810 812 813 815 816 817 817 818 818 819 820 821 821 822 823 824 824 825 826 827 828 828 829 830 831 832 833 834 835 836 838 839 840 841 842 843 844 844 845 845 846 846 847 847 847 848 848 849 850
771 772 774 777 780 781 780 781 781 782 784 785 787 788 789 790 790 790 791 791 791 792 793 795 797 797 798 799 800 802 803 804 805 806 807 809 810 811 812 813 815 816 817 818 818 819 820 820 821 822 822 823 824 825 827 827 828 829 829 830 831 832 833 834 835 836 837 838 840 842 843 844 845 845 845 845 846 846 847 847 848 848 849 850 850
776 777 778 780 781 782 782 783 783 784 786 787 788 789 790 790 791 792 793 793 793 795 796 796 796 796 797 798 800 801 802 803 805 806 807 808 808 809 810 810 811 813 816 817 818 819 820 820 821 821 822 823 824 825 826 828 828 829 829 830 831 832 833 834 835 836 837 838 840 841 842 843 844 845 845 845 845 846 847 848 848 849 849 850 850
781 781 783 785 785 785 785 785 785 786 787 788 789 790 790 791 791 793 794 795 795 796 796 796 797 798 798 799 800 801 802 803 804 805 806 807 808 809 809 810 810 811 814 816 818 818 819 820 820 821 822 823 824 825 826 827 828 828 829 830 831 832 833 834 834 835 836 838 839 840 841 843 844 844 845 845 845 845 846 847 848 849 850 850 850
786 788 790 790 790 791 790 789 789 789 789 789 789 790 790 790 791 793 794 795 796 797 797 799 801 801 800 800 801 801 803 803 804 805 806 807 808 809 810 811 811 811 812 814 816 817 817 818 819 820 821 822 823 825 825 826 827 827 828 828 830 831 832 833 834 834 835 836 837 838 840 843 844 845 845 845 844 844 844 845 847 848 849 850 850
791 793 796 797 797 798 797 795 795 794 793 793 792 792 792 792 793 794 795 797 797 798 799 801 802 803 802 802 802 803 803 804 804 805 806 807 809 810 811 811 811 812 812 813 815 816 817 818 818 819 820 821 822 823 824 825 825 826 827 827 828 830 831 832 833 833 835 836 837 839 840 841 843 844 844 844 843 843 844 844 845 846 848 849 850
798 800 802 804 805 805 804 803 802 801 800 799 798 797 797 796 797 797 797 798 799 799 801 802 803 803 803 803 804 804 805 805 805 806 807 807 808 810 811 811 811 811 811 812 814 815 816 817 817 818 820 820 820 822 823 824 824 825 825 826 827 828 829 830 831 832 834 836 837 838 839 840 840 841 841 842 842 843 843 844 844 845 847 848 849
805 807 808 810 810 810 810 809 808 808 806 805 804 803 802 801 800 800 800 800 801 802 803 804 804 805 804 804 805 805 806 807 807 807 807 807 808 809 810 812 813 812 812 813 814 815 815 816 816 817 819 819 819 821 822 822 823 824 824 825 826 827 828 829 829 830 831 833 835 836 837 837 837 837 838 839 839 840 841 842 843 844 846 847 848
812 812 814 815 815 815 814 813 813 812 811 810 809 808 807 806 805 805 804 803 805 806 807 808 808 807 807 807 807 807 807 807 807 808 808 808 808 809 810 812 813 813 813 813 814 814 814 815 815 816 818 818 818 819 820 820 821 822 823 824 824 825 826 828 828 829 830 831 832 834 835 834 833 834 835 836 837 838 839 841 842 843 845 847 847
816 817 818 818 818 819 818 817 817 816 814 814 813 812 812 811 810 809 809 808 809 810 811 812 811 811 810 810 810 810 809 809 808 808 808 808 808 809 809 810 810 811 811 811 812 812 813 813 814 815 816 816 816 817 818 819 819 820 821 822 822 823 824 826 827 827 829 830 830 831 831 831 831 831 833 834 835 836 837 839 841 843 844 845 845
818 819 819 819 820 821 820 820 819 818 818 817 816 816 815 814 814 813 813 813 813 814 815 815 815 814 814 813 813 812 811 810 809 809 809 808 808 808 809 809 809 809 809 809 810 810 811 812 812 813 814 814 814 815 817 818 818 819 819 820 820 821 822 824 825 825 826 828 828 828 829 829 829 830 832 833 834 835 837 839 840 842 843 843 843
819 819 820 820 821 820 821 821 820 820 820 819 819 818 817 816 817 816 816 816 816 816 817 818 817 817 816 815 815 814 812 811 810 810 810 809 809 809 809 808 808 808 808 808 809 809 810 810 810 811 812 813 813 814 816 817 817 817 817 818 819 819 820 822 823 823 824 825 826 826 827 826 827 829 830 832 833 835 837 838 840 841 842 842 843
819 820 820 820 820 820 821 821 821 821 821 820 820 819 818 818 818 818 818 818 818 818 818 818 818 817 816 816 815 814 813 812 811 811 811 811 810 810 809 808 807 807 807 807 807 807 808 808 809 810 810 811 812 813 814 814 814 814 815 816 817 818 818 820 821 822 823 823 823 824 825 825 826 827 829 831 833 835 836 837 839 840 841 841 842
820 820 820 820 820 820 821 822 822 822 821 821 821 820 819 819 819 819 819 818 819 819 819 818 818 817 816 816 816 815 814 813 812 812 811 811 811 810 809 808 806 806 805 805 805 805 805 805 806 806 807 808 809 810 811 811 811 812 813 814 815 816 816 817 819 820 821 822 822 822 823 825 826 827 829 831 832 834 836 837 837 838 839 839 840
821 821 821 821 820 821 821 822 822 822 822 822 822 821 821 820 820 820 819 819 819 819 819 819 818 818 818 817 816 815 814 813 812 812 811 811 811 810 809 807 806 805 804 803 803 802 802 803 803 803 803 804 806 807 807 807 809 810 811 811 812 813 815 816 817 819 820 820 821 821 822 824 825 826 828 829 831 833 834 835 836 837 838 839 839
821 821 821 821 821 821 822 822 822 822 822 822 822 822 822 821 821 821 821 821 820 820 820 819 818 818 817 816 815 815 814 813 812 812 811 810 809 808 807 806 805 804 803 802 801 800 800 800 800 801 801 802 803 804 804 804 806 807 808 809 809 811 814 815 816 817 819 819 819 820 821 823 825 825 827 828 830 831 833 835 835 836 837 838 840
820 820 821 821 821 821 822 822 823 823 823 822 822 822 822 822 822 822 821 821 821 820 820 819 818 818 817 816 815 814 813 813 812 811 810 808 807 807 806 804 804 802 801 800 799 798 798 797 797 798 798 799 800 801 801 802 803 804 805 806 807 809 812 813 814 815 817 818 818 819 821 822 824 825 826 827 829 831 833 834 835 836 837 838 840
820 821 821 821 821 822 822 822 823 823 823 823 823 823 822 822 822 821 821 821 820 820 820 819 818 818 816 816 815 814 813 812 810 810 808 807 805 805 803 802 801 800 799 798 797 796 796 794 795 795 796 796 798 798 798 799 800 801 803 804 805 807 809 811 812 813 815 816 817 818 820 821 823 824 826 827 829 831 832 833 835 836 837 838 840
822 822 823 822 822 822 823 823 823 823 823 823 822 823 822 822 821 821 821 821 820 820 819 819 818 817 816 815 814 813 812 811 810 809 807 805 804 803 801 800 799 798 797 796 795 794 793 792 792 793 793 794 795 796 796 797 798 799 800 802 804 805 807 808 810 811 814 816 816 817 819 821 823 824 826 827 829 831 832 833 835 836 837 838 839
822 823 823 823 823 823 823 823 823 823 823 822 823 823 822 821 821 821 821 820 820 819 819 818 817 816 815 815 814 812 811 810 809 808 806 804 803 801 799 798 797 796 795 794 793 792 791 790 790 790 791 792 793 794 795 795 796 797 798 799 801 803 805 806 808 810 812 814 815 817 818 821 823 824 825 827 829 830 832 833 834 836 837 837 838
823 823 824 823 823 823 822 822 823 822 822 822 823 822 822 821 821 821 820 820 819 818 818 817 816 815 815 814 813 811 810 809 808 807 805 804 802 800 799 797 796 795 794 792 791 790 788 788 787 787 788 789 790 792 794 795 794 794 795 797 798 800 802 804 806 808 810 812 814 816 818 820 822 824 825 827 828 830 831 832 834 835 836 837 837
823 823 824 823 822 822 822 823 823 823 823 823 823 822 822 822 821 821 820 819 819 818 817 817 816 815 814 813 812 811 810 808 807 805 804 802 801 800 798 796 795 794 792 791 789 788 787 786 785 784 786 787 787 789 792 795 794 793 793 794 795 797 799 802 804 806 809 811 813 815 818 820 821 823 825 826 828 829 830 831 833 835 836 836 837
824 823 823 822 822 823 824 824 823 823 823 823 823 823 823 822 822 821 820 819 819 818 817 817 816 815 814 813 812 811 809 808 806 804 803 801 800 799 797 795 793 792 791 790 789 788 787 786 784 782 783 784 785 786 789 792 794 793 792 791 792 794 796 798 801 804 806 810 812 814 817 819 820 823 825 826 827 828 829 831 832 834 835 836 837
823 823 821 821 823 824 824 824 824 824 824 824 823 823 823 822 822 821 821 820 819 818 817 816 815 814 813 812 811 810 809 808 806 804 802 799 797 796 795 793 792 790 789 789 788 787 787 786 785 783 782 782 784 785 787 790 792 794 793 790 790 793 794 795 799 802 805 809 812 814 816 818 819 822 823 825 826 827 829 830 832 833 835 836 837
823 822 821 821 823 824 824 824 824 824 824 824 823 823 823 822 822 821 820 820 819 818 817 816 814 813 812 811 810 809 808 807 805 804 802 799 796 794 792 791 790 788 787 786 785 785 785 785 785 784 783 782 782 783 786 788 789 793 794 793 791 793 794 795 798 801 804 808 811 813 815 817 819 821 823 824 826 827 828 830 831 833 834 835 836